EW2000 Weather Reports


time (UTC)temp
C
wind
direction
speed
KPH
gust
KPH
rain 1hr
cm
rain 24hr
cm
rain mn
cm
humidity
%
barometer
mb
20260505203507 14 165 0.0 0.0 0.00 0.00 0.00 74 1016.2
20260505203015 14 165 0.0 1.6 0.00 0.00 0.00 74 1016.3
20260505202508 14 307 0.0 8.0 0.00 0.00 0.00 75 1016.3
20260505202011 14 36 0.0 8.0 0.00 0.00 0.00 74 1016.3
20260505201523 14 316 0.0 0.0 0.00 0.00 0.00 75 1016.3
20260505201011 15 244 0.0 0.0 0.00 0.00 0.00 74 1016.3
20260505200508 14 245 0.0 0.0 0.00 0.00 0.00 74 1016.3
20260505200025 14 244 0.0 1.6 0.00 0.00 0.00 75 1016.4
20260505195507 14 295 0.0 1.6 0.00 0.00 0.00 76 1016.4
20260505195012 14 334 0.0 0.0 0.00 0.00 0.00 76 1016.4
20260505194526 14 330 0.0 0.0 0.00 0.00 0.00 77 1016.5
20260505194011 13 330 0.0 8.0 0.00 0.00 0.00 76 1016.6
20260505193510 13 352 0.0 8.0 0.00 0.00 0.00 77 1016.6
20260505193028 14 346 0.0 4.8 0.00 0.00 0.00 77 1016.6
20260505192507 13 32 0.0 3.2 0.00 0.00 0.00 77 1016.5
20260505192008 13 329 0.0 6.4 0.00 0.00 0.00 78 1016.6
20260505191520 13 327 0.0 6.4 0.00 0.00 0.00 78 1016.6
20260505191008 13 17 0.0 6.4 0.00 0.00 0.00 78 1016.5
20260505190507 13 323 1.6 9.7 0.00 0.00 0.00 78 1016.5
20260505190023 13 28 0.0 9.7 0.00 0.00 0.00 79 1016.6
20260505185510 13 348 3.2 11.3 0.00 0.00 0.00 78 1016.5
20260505185011 13 350 0.0 11.3 0.00 0.00 0.00 74 1016.5
20260505184534 13 307 1.6 6.4 0.00 0.00 0.00 76 1016.5
20260505184012 13 327 0.0 1.6 0.00 0.00 0.00 75 1016.5
20260505183508 13 352 0.0 1.6 0.00 0.00 0.00 75 1016.5
20260505183123 13 306 0.0 8.0 0.00 0.00 0.00 76 1016.5
20260505183119 13 5 0.0 9.7 0.00 0.00 0.00 75 1016.5
20260505183117 13 292 0.0 0.0 0.00 0.00 0.00 75 1016.3
20260505183110 13 330 0.0 0.0 0.00 0.00 0.00 75 1016.3
20260505183106 13 326 1.6 6.4 0.00 0.00 0.00 74 1016.0
20260505183059 13 95 0.0 0.0 0.00 0.00 0.00 76 1015.8
20260505183052 12 11 0.0 0.0 0.00 0.00 0.00 77 1015.9
20260505183050 12 11 0.0 0.0 0.00 0.00 0.00 77 1015.9
20260505183048 12 5 0.0 0.0 0.00 0.00 0.00 78 1015.7
20260505183043 12 5 0.0 1.6 0.00 0.00 0.00 79 1015.7
20260505183041 12 185 0.0 0.0 0.00 0.00 0.00 79 1015.7
20260505183039 12 185 0.0 0.0 0.00 0.00 0.00 79 1015.6
20260505183037 11 185 0.0 0.0 0.00 0.00 0.00 80 1015.5
20260505183013 11 185 0.0 0.0 0.00 0.00 0.00 80 1015.4
20260505183003 11 185 0.0 0.0 0.00 0.00 0.00 80 1015.4
20260505183000 11 185 0.0 0.0 0.00 0.00 0.00 80 1015.4
20260505182956 11 185 0.0 0.0 0.00 0.00 0.00 80 1015.4
20260505182953 11 185 0.0 0.0 0.00 0.00 0.00 81 1015.4
20260505182949 11 185 0.0 0.0 0.00 0.00 0.00 81 1015.3
20260505182945 11 185 0.0 0.0 0.00 0.00 0.00 81 1015.2
20260505182940 11 185 0.0 0.0 0.00 0.00 0.00 81 1015.2
20260505182935 11 185 0.0 0.0 0.00 0.00 0.00 81 1015.0
20260505182932 11 185 0.0 0.0 0.00 0.00 0.00 82 1014.7
20260505182927 11 186 0.0 0.0 0.00 0.00 0.00 81 1014.7
20260505182925 11 192 0.0 0.0 0.00 0.00 0.00 81 1014.6
20260505182920 11 234 0.0 0.0 0.00 0.00 0.00 82 1014.7
20260505182914 11 319 0.0 0.0 0.00 0.00 0.00 81 1014.5
20260505182910 11 229 0.0 0.0 0.00 0.00 0.00 80 1014.5
20260505182905 11 229 0.0 0.0 0.00 0.00 0.00 80 1014.5
20260505182901 11 229 0.0 0.0 0.00 0.00 0.00 80 1014.6
20260505182855 11 229 0.0 0.0 0.00 0.00 0.00 79 1014.6
20260505182851 11 229 0.0 0.0 0.00 0.00 0.00 78 1014.7
20260505182843 11 230 0.0 0.0 0.00 0.00 0.00 78 1014.9
20260505182839 11 230 0.0 0.0 0.00 0.00 0.00 78 1014.9
20260505182836 11 230 0.0 0.0 0.00 0.00 0.00 77 1014.9
20260505182832 11 230 0.0 0.0 0.00 0.00 0.00 77 1014.9
20260505182829 11 230 0.0 0.0 0.00 0.00 0.00 77 1014.9
20260505182825 11 230 0.0 0.0 0.00 0.00 0.00 76 1014.9
20260505182821 11 230 0.0 0.0 0.00 0.00 0.00 76 1014.9
20260505182818 11 230 0.0 0.0 0.00 0.00 0.00 76 1014.9
20260505182811 11 230 0.0 0.0 0.00 0.00 0.00 76 1014.9
20260505182807 11 229 0.0 0.0 0.00 0.00 0.00 76 1014.9
20260505182802 11 254 0.0 1.6 0.00 0.00 0.00 76 1015.0
20260505182800 11 235 0.0 3.2 0.00 0.00 0.00 75 1014.9
20260505182752 11 227 0.0 11.3 0.00 0.00 0.00 76 1015.0
20260505182748 11 248 0.0 9.7 0.00 0.00 0.00 77 1015.0
20260505182744 11 258 0.0 0.0 0.00 0.00 0.00 77 1014.9
20260505182740 11 259 0.0 0.0 0.00 0.00 0.00 75 1015.1
20260505182736 11 262 0.0 1.6 0.00 0.00 0.00 75 1015.1
20260505182732 11 248 0.0 1.6 0.00 0.00 0.00 74 1015.0
20260505182729 11 276 0.0 4.8 0.00 0.00 0.00 73 1015.3
20260505182725 11 261 0.0 6.4 0.00 0.00 0.00 74 1015.5
20260505182722 11 252 0.0 6.4 0.00 0.00 0.00 74 1015.5
20260505182718 11 296 0.0 12.9 0.00 0.00 0.00 77 1015.6
20260505182713 11 350 0.0 4.8 0.00 0.00 0.00 78 1015.6
20260505182711 12 325 0.0 9.7 0.00 0.00 0.00 78 1015.6
20260505182705 12 256 0.0 4.8 0.00 0.00 0.00 81 1015.6
20260505182703 12 252 0.0 4.8 0.00 0.00 0.00 82 1015.8
20260505182656 12 250 0.0 0.0 0.00 0.00 0.00 83 1015.7
20260505182651 12 263 0.0 1.6 0.00 0.00 0.00 82 1015.6
20260505182649 12 256 0.0 0.0 0.00 0.00 0.00 82 1015.6
20260505182643 12 233 0.0 0.0 0.00 0.00 0.00 82 1015.6
20260505182639 12 232 0.0 0.0 0.00 0.00 0.00 81 1015.5
20260505182635 12 232 0.0 0.0 0.00 0.00 0.00 81 1015.3
20260505182630 12 232 0.0 0.0 0.00 0.00 0.00 81 1015.4
20260505182627 12 232 0.0 0.0 0.00 0.00 0.00 81 1015.4
20260505182623 12 237 0.0 0.0 0.00 0.00 0.00 80 1015.5
20260505182618 12 237 0.0 0.0 0.00 0.00 0.00 80 1015.4
20260505182614 12 239 0.0 0.0 0.00 0.00 0.00 79 1015.2
20260505182609 12 242 0.0 0.0 0.00 0.00 0.00 78 1015.4
20260505182607 12 244 0.0 0.0 0.00 0.00 0.00 78 1015.5
20260505182602 13 261 0.0 0.0 0.00 0.00 0.00 78 1015.6
20260505182557 13 329 0.0 6.4 0.00 0.00 0.00 78 1015.7
20260505182555 13 259 0.0 0.0 0.00 0.00 0.00 77 1015.9
20260505182550 13 258 0.0 3.2 0.00 0.00 0.00 77 1015.8
20260505182548 13 282 0.0 4.8 0.00 0.00 0.00 77 1015.7
20260505182541 13 267 0.0 0.0 0.00 0.00 0.00 77 1015.6
20260505182535 13 272 0.0 6.4 0.00 0.00 0.00 75 1015.3
20260505182533 13 360 0.0 4.8 0.00 0.00 0.00 75 1015.3
20260505182531 13 323 0.0 3.2 0.00 0.00 0.00 75 1015.3
20260505182524 13 327 0.0 4.8 0.00 0.00 0.00 75 1015.3
20260505182521 13 281 0.0 0.0 0.00 0.00 0.00 73 1015.0
20260505182513 13 304 0.0 4.8 0.00 0.00 0.00 73 1014.9
20260505182508 13 291 0.0 4.8 0.00 0.00 0.00 73 1014.7
20260505182505 14 333 0.0 1.6 0.00 0.00 0.00 72 1014.5
20260505182502 14 301 0.0 6.4 0.00 0.00 0.00 72 1014.5
20260505182458 14 341 0.0 6.4 0.00 0.00 0.00 72 1014.6
20260505182455 14 19 0.0 4.8 0.00 0.00 0.00 71 1014.7
20260505182453 14 331 0.0 4.8 0.00 0.00 0.00 71 1014.7
20260505182445 14 258 0.0 9.7 0.00 0.00 0.00 70 1014.7
20260505182441 14 15 0.0 14.5 0.00 0.00 0.00 70 1014.7
20260505182439 15 341 0.0 12.9 0.00 0.00 0.00 69 1014.5
20260505182435 15 315 4.8 16.1 0.00 0.00 0.00 67 1014.5
20260505182430 15 318 0.0 11.3 0.00 0.00 0.00 66 1014.5
20260505182426 15 306 0.0 6.4 0.00 0.00 0.00 66 1014.4
20260505182421 15 316 0.0 6.4 0.00 0.00 0.00 66 1014.4
20260505182416 15 301 0.0 9.7 0.00 0.00 0.00 67 1014.4
20260505182413 15 311 0.0 6.4 0.00 0.00 0.00 68 1014.6
20260505182408 15 323 0.0 11.3 0.00 0.00 0.00 67 1014.7
20260505182401 15 255 1.6 12.9 0.00 0.00 0.00 67 1014.8
20260505182357 16 250 0.0 11.3 0.00 0.00 0.00 67 1014.8
20260505182353 16 227 0.0 8.0 0.00 0.00 0.00 67 1014.8
20260505182347 16 336 1.6 12.9 0.00 0.00 0.00 67 1014.7
20260505182343 16 9 4.8 12.9 0.00 0.00 0.00 65 1014.7
20260505182338 16 5 0.0 9.7 0.00 0.00 0.00 65 1014.6
20260505182333 16 327 1.6 12.9 0.00 0.00 0.00 66 1014.4
20260505182330 16 321 4.8 16.1 0.00 0.00 0.00 65 1014.4
20260505182324 17 308 1.6 19.3 0.00 0.00 0.00 63 1014.5
20260505182320 16 248 0.0 0.0 0.00 0.00 0.00 66 1014.5
20260505013810 16 227 0.0 0.0 0.00 0.00 0.00 65 1014.5
20260505010947 16 227 0.0 3.2 0.00 0.00 0.00 63 1014.5
20260505005259 16 227 0.0 3.2 0.00 0.00 0.00 64 1014.5
20260505003402 16 257 0.0 9.7 0.00 0.00 0.00 63 1014.5
20260505001948 16 257 1.6 9.7 0.00 0.00 0.00 64 1014.5
20260505000947 16 239 0.0 6.4 0.00 0.00 0.00 63 1014.5
20260505000042 16 273 0.0 11.3 0.00 0.00 0.00 64 1014.5
20260504234808 16 257 0.0 11.3 0.00 0.00 0.00 64 1014.6
20260504234210 16 281 0.0 8.0 0.00 0.00 0.00 65 1014.6
20260504233445 16 326 0.0 8.0 0.00 0.00 0.00 65 1014.6
20260504232729 16 324 1.6 6.4 0.00 0.00 0.00 65 1014.7
20260504231423 16 284 0.0 6.4 0.00 0.00 0.00 64 1014.7
20260504230714 16 286 0.0 6.4 0.00 0.00 0.00 64 1014.7
20260504230212 16 250 0.0 6.4 0.00 0.00 0.00 63 1014.7
20260504225138 16 286 0.0 6.4 0.00 0.00 0.00 63 1014.7
20260504224104 16 266 0.0 4.8 0.00 0.00 0.00 64 1014.7
20260504223358 16 247 0.0 3.2 0.00 0.00 0.00 64 1014.9
20260504222540 16 360 0.0 8.0 0.00 0.00 0.00 63 1014.9
20260504221948 16 320 0.0 12.9 0.00 0.00 0.00 62 1014.9
20260504221238 16 288 1.6 12.9 0.00 0.00 0.00 64 1014.8
20260504220422 16 319 0.0 6.4 0.00 0.00 0.00 63 1014.8
20260504215459 16 321 0.0 9.7 0.00 0.00 0.00 63 1014.8
20260504215120 16 327 3.2 11.3 0.00 0.00 0.00 61 1014.9
20260504213827 17 281 0.0 11.3 0.00 0.00 0.00 61 1014.9
20260504212909 17 234 0.0 9.7 0.00 0.00 0.00 60 1014.9
20260504211945 16 302 0.0 8.0 0.00 0.00 0.00 60 1014.9
20260504210955 17 336 0.0 8.0 0.00 0.00 0.00 60 1015.0
20260504210143 17 323 0.0 14.5 0.00 0.00 0.00 58 1015.0
20260504205445 17 234 3.2 14.5 0.00 0.00 0.00 57 1015.0
20260504204635 17 247 1.6 9.7 0.00 0.00 0.00 58 1015.0
20260504203933 17 315 4.8 12.9 0.00 0.00 0.00 57 1015.0